364P/PanSTARRS (2018)

Japanese version
Home page
Updated on October 22, 2018

---------------------------------------------------------------------

* Profile

Designation 364P/2018 A2
Recovery Date January 12 and 16, 2018
Magnitude 20.6 mag, 20.0 mag
Recoverer D. C. Fuls (Mount Lemmon), Erwin Schwab (Egelsbach, Germany)

* Pictures

* Orbital Elements

Epoch 2018 June 11.0 TT = JDT 2458280.5
T 2018 June 24.36601 TT                                 MPCW
q   0.7978528            (2000.0)            P               Q
n   0.20191332     Peri.  211.92783     -0.21380776     +0.96497030
a   2.8775711      Node    46.22827     -0.84612876     -0.10514656
e   0.7227339      Incl.   12.15535     -0.48821343     -0.24036745
P   4.88
From 604 observations 2013 Feb. 1-2018 Sept. 16, mean residual 0".6.

* Finding Charts

* Magnitudes Graph

        H = 16.5  G = 0.15                       [   ,-63]  (             - 2018 Apr. 22)
        m1 = 16.0 + 5 log d + 25.0 log r(t - 5)  [-63, 68]  (2018 Apr. 22 - 2018 Aug. 31)
        H = 16.5  G = 0.15                       [ 68,   ]  (2018 Aug. 31 -             )

---------------------------------------------------------------------

The orbital elements are published on M.P.E.C. 2018-S50.
The charts are made with StellaNavigator Ver.8 (AstroArts).
The magnitudes graphs are made with Comet for Windows.

---------------------------------------------------------------------

Copyright(C) Seiichi Yoshida (comet@aerith.net). All rights reserved.